SCP
1 1 1 0 0 1 1 1 1 1 1 1 1 1 1 1 1 0 0 1 1 1 1 1 1 1 1 1 1 1 1 1 0 0 0 0 0 0 0 0 0 0 0
1 1 0 0 0 0 1 1 1 1 1 1 1 1 1 1 1 0 0 0 1 1 1 1 1 1 1 1 1 1 1 1 0 0 0 0 0 0 0 0 0 0 0
0 0 0 0 0 0 0 0 0 -0 0 0 0 1 1 1 0 0 0 0 1 1 1 1 1 1 1 1 1 1 1 1 1 1 0 0 0 0 0 0 0 0 0
0 0 0 0 0 0 0 0 -0 -1 -0 0 0 0 0 0 0 0 0 0 0 1 1 1 1 1 1 1 1 1 1 1 1 1 0 0 0 0 0 0 0 0 0
0 0 0 0 0 0 0 0 -0 -1 -0 0 0 0 0 0 0 0 0 0 0 0 0 0 1 1 1 1 1 1 1 1 1 1 1 0 0 0 0 0 0 0 0
0 0 0 0 0 0 0 0 0 0 0 0 0 0 0 0 0 0 0 0 0 0 0 0 0 0 1 0 0 0 1 1 1 1 1 0 0 0 0 0 0 0 0
0 0 0 0 0 0 0 0 0 0 0 0 0 0 0 0 0 0 0 0 0 0 0 0 0 0 0 0 0 0 0 1 1 1 1 0 0 0 0 0 0 0 0
0 0 0 0 0 0 0 0 0 0 0 0 0 0 0 0 0 0 0 0 0 0 0 0 0 0 0 0 0 0 0 0 0 0 0 0 0 0 0 0 0 0 0
0 0 0 0 0 0 0 0 0 0 0 0 0 0 0 0 0 0 0 0 0 0 0 0 0 0 0 0 0 0 0 0 0 0 0 0 0 0 0 0 0 0 0
0 0 0 0 0 0 0 0 0 0 0 0 0 0 0 0 0 0 0 0 0 0 0 0 0 0 0 0 0 0 0 0 0 0 0 0 0 0 0 0 0 0 0
0 0 0 0 0 0 0 0 0 0 0 0 0 0 0 0 0 0 0 0 0 0 0 0 0 0 0 0 0 0 0 0 0 0 0 0 0 0 0 0 0 0 0
0 0 0 0 0 0 0 0 0 0 0 0 0 0 0 0 0 0 0 0 0 0 0 0 0 0 0 0 0 0 0 0 0 0 0 0 0 0 0 0 0 0 0
0 0 0 0 0 0 0 0 0 0 0 0 0 0 0 0 0 0 0 0 0 0 0 0 0 0 0 0 0 0 0 0 0 0 0 0 0 0 0 0 0 0 0
0 0 0 0 0 0 0 0 0 0 0 0 0 0 0 0 0 0 0 0 0 0 0 0 0 0 0 0 0 0 0 0 0 0 0 0 0 0 0 0 0 0 0
0 0 0 0 0 0 0 0 0 0 0 0 0 0 0 0 0 0 0 0 0 0 0 0 0 0 0 0 0 0 0 0 0 0 0 0 0 0 0 0 0 0 0
0 0 0 0 0 0 0 0 0 0 0 0 0 0 0 0 0 0 0 0 0 0 0 0 0 0 0 0 0 0 0 0 0 0 0 0 0 0 0 0 0 0 0
0 0 0 0 0 0 0 0 0 0 0 0 0 0 0 0 0 0 0 0 0 0 0 0 0 0 0 0 0 0 0 0 0 0 0 0 0 0 0 0 0 0 0
0 0 0 0 0 0 0 0 0 0 0 0 0 0 0 0 0 0 0 0 0 0 0 0 0 0 0 0 0 0 0 0 0 0 0 0 0 0 0 0 0 0 0
0 0 0 0 0 0 0 0 0 0 0 0 0 0 0 0 0 0 0 0 0 0 0 0 0 0 0 0 0 0 0 0 0 0 0 0 0 0 0 0 0 0 0
0 0 0 0 0 0 0 0 0 0 0 0 0 0 0 0 0 0 0 0 0 0 0 0 0 0 0 0 0 0 0 0 0 0 0 0 0 0 0 0 0 0 0
0 0 0 0 0 0 0 0 0 0 0 0 0 0 0 0 0 0 0 0 0 0 0 0 0 0 0 0 0 0 0 0 0 0 0 0 0 0 0 0 0 0 0
0 0 0 0 0 0 0 0 0 0 0 0 0 0 0 0 0 0 0 0 0 0 0 0 0 0 0 0 0 0 0 0 0 0 0 0 0 0 0 0 0 0 0
0 0 0 0 0 0 0 0 0 0 0 0 0 0 0 0 0 0 0 0 0 0 0 0 0 0 0 0 0 0 0 0 0 0 0 0 0 0 0 0 0 0 0
0 0 0 0 0 0 0 0 0 0 0 0 0 0 0 0 0 0 0 0 0 0 0 0 0 0 0 0 0 0 0 0 0 0 0 0 0 0 0 0 0 0 0
0 0 0 0 0 0 0 0 0 0 0 0 0 0 0 0 0 0 0 0 0 0 0 0 0 0 0 0 0 0 0 0 0 0 0 0 0 0 0 0 0 0 0
0 0 0 0 0 0 0 0 0 0 0 0 0 0 0 0 0 0 0 0 0 0 0 0 0 0 0 0 0 0 0 0 0 0 0 0 0 0 0 0 0 0 0
Wind_Speed
2 2 2 2 3 3 3 4 5 7 8 9 9 10 10 10 9 7 6 14 15 18 21 22 22 22 21 21 21 20 20 20 19 17 17 16 15 15 15 14 14 13 13
0 1 2 2 2 2 3 3 5 6 6 7 10 11 11 10 9 9 7 9 15 17 20 21 22 22 22 21 21 21 20 20 19 19 18 17 16 16 16 15 14 14 13
1 1 1 2 2 2 2 2 3 4 5 6 9 10 9 9 9 9 8 6 7 15 20 21 21 21 21 22 22 21 21 20 19 20 19 18 17 17 16 16 15 15 14
2 1 1 2 2 2 2 2 3 3 4 5 5 6 7 6 9 9 7 7 6 7 14 21 22 21 22 23 23 23 21 20 20 20 20 20 19 18 17 17 16 16 15
1 1 1 2 2 2 2 3 2 2 3 4 4 5 5 6 7 9 8 8 8 8 8 14 21 22 24 25 24 23 22 21 21 21 21 21 20 19 19 18 17 17 16
0 0 1 2 2 2 2 2 3 3 3 4 5 5 5 6 6 7 9 9 8 10 10 11 10 14 23 23 22 22 22 22 22 22 22 22 21 20 19 18 18 18 17
2 1 2 2 2 2 3 3 2 3 3 2 2 3 4 5 6 7 7 7 9 10 10 11 9 8 9 19 21 21 22 22 22 22 22 22 22 20 20 20 19 19 18
4 3 3 3 2 2 3 3 2 2 2 2 1 2 2 2 5 8 7 8 9 8 10 12 10 10 8 7 12 21 21 22 22 22 22 22 21 20 20 20 19 19 19
5 5 5 4 3 2 2 3 2 2 3 2 2 2 2 2 2 3 6 7 7 7 9 8 11 12 11 8 8 15 21 20 22 22 22 21 20 19 19 20 20 20 19
6 5 5 4 3 3 3 3 2 2 2 3 2 2 3 2 2 3 2 4 6 7 8 9 10 10 10 8 10 13 19 20 21 21 21 21 20 20 19 20 21 20 20
5 5 4 3 3 3 3 3 2 2 2 2 2 2 2 2 3 2 3 2 2 4 6 7 7 8 10 9 8 12 16 18 19 20 19 20 20 20 20 20 21 21 21
4 6 5 3 3 3 4 4 4 3 3 3 2 2 2 2 2 1 2 2 3 3 4 5 7 7 7 8 12 15 16 17 17 18 18 18 19 19 20 20 21 21 21
3 5 5 3 3 4 4 4 4 4 4 4 3 3 3 3 2 2 2 2 3 3 3 3 5 6 7 7 8 15 15 16 16 16 17 17 17 18 18 19 20 20 20
4 5 5 4 5 5 5 4 4 4 4 4 5 4 3 3 2 2 2 2 2 2 2 3 2 4 4 5 8 12 9 14 14 14 15 15 16 16 16 17 17 17 17
4 5 5 5 5 5 5 5 4 5 5 5 5 5 3 3 3 3 2 2 2 2 3 3 2 2 2 3 7 6 6 10 12 12 13 13 14 14 15 15 15 15 15
5 5 6 6 6 6 5 5 5 5 5 6 5 5 5 3 3 3 2 3 3 3 3 3 2 1 2 4 5 5 5 9 9 11 11 11 12 13 13 14 14 14 14
6 6 6 6 6 7 6 5 6 6 6 6 6 6 7 5 4 3 3 3 3 2 4 3 2 1 2 5 5 5 5 5 4 7 8 9 10 11 11 12 13 13 13
6 6 7 7 7 7 7 6 7 7 6 7 7 7 7 6 6 4 3 3 3 3 3 4 2 1 1 6 7 7 5 5 4 5 6 7 8 9 9 10 10 11 11
7 7 7 7 8 8 8 8 8 8 8 8 7 7 8 7 7 5 5 4 3 3 3 3 3 1 1 4 6 6 6 5 5 6 7 7 7 8 8 8 9 9 9
7 7 7 8 8 8 8 9 8 8 8 8 8 7 8 8 8 7 6 6 4 4 3 3 3 2 2 4 5 6 5 3 4 4 6 7 9 9 9 8 9 9 10
8 7 7 8 8 7 8 9 8 9 8 8 8 7 8 11 13 10 7 6 6 4 4 4 3 3 4 6 6 5 6 5 3 3 4 4 5 5 5 7 9 10 11
7 7 8 8 9 9 11 14 11 8 7 8 8 7 8 10 13 15 15 13 11 7 6 5 4 5 6 6 6 7 7 6 4 3 4 3 3 5 4 4 7 10 11
7 8 8 8 9 11 15 16 17 10 9 8 8 7 9 9 9 7 10 14 13 14 12 7 6 6 6 7 9 9 9 7 4 7 5 4 3 4 3 5 9 10 11
7 8 9 9 9 11 14 15 17 11 9 9 9 9 9 8 8 7 6 7 7 8 9 7 6 6 5 5 9 9 10 7 6 5 4 4 3 3 3 4 7 9 10
8 8 8 9 9 11 14 15 14 7 7 9 9 9 9 9 11 12 8 7 6 6 8 9 8 8 8 8 8 7 9 10 7 4 3 5 4 3 3 3 5 8 9
8 8 8 8 8 9 12 14 12 5 6 6 6 7 12 11 11 12 9 8 8 7 5 6 6 7 7 9 12 10 10 11 8 5 4 5 5 5 4 2 2 3 5
Wind_Direction
240 262 269 272 268 253 240 235 230 231 230 228 225 225 225 225 225 222 230 235 225 213 207 203 202 202 201 198 198 199 198 198 195 193 191 191 189 187 186 185 182 180 178
186 290 298 296 287 271 252 242 237 236 235 233 231 227 226 226 228 224 223 233 227 215 210 207 204 205 207 205 203 203 202 201 199 196 195 194 193 192 191 190 188 185 184
81 16 322 312 304 297 284 263 256 247 244 240 237 232 228 227 230 227 222 222 225 221 214 209 208 209 210 210 209 207 205 204 201 198 197 196 195 195 195 193 192 191 189
69 48 357 320 307 299 288 272 256 250 252 246 240 235 230 228 234 232 225 224 219 221 219 217 214 213 213 213 214 212 208 206 202 200 199 198 198 197 197 197 196 194 193
74 65 359 314 318 313 299 290 280 257 261 258 251 238 227 229 233 237 233 228 221 217 218 223 221 217 217 218 217 215 210 207 205 202 202 201 201 200 200 199 199 198 197
326 37 299 301 308 304 296 286 282 277 261 261 265 259 237 230 226 229 232 229 222 220 219 222 222 223 221 222 219 217 214 210 206 205 204 204 204 202 201 201 201 200 200
296 288 286 291 294 281 281 284 279 284 277 265 270 273 251 232 231 231 226 223 224 223 219 220 216 217 221 222 219 218 217 214 209 207 206 206 206 203 201 202 203 201 201
296 288 266 263 265 270 294 295 277 282 279 270 262 276 275 255 237 235 228 224 224 220 220 220 216 215 216 210 216 218 219 218 214 210 208 206 205 203 202 203 203 203 203
297 287 271 256 245 230 251 267 261 266 280 286 257 243 254 253 271 248 228 227 219 214 218 216 214 213 212 209 210 215 216 216 217 214 209 206 204 203 202 203 204 205 205
309 304 292 273 247 231 238 255 248 240 262 283 290 264 253 258 262 293 280 235 224 217 218 219 218 212 210 207 208 207 211 213 215 214 211 207 204 203 203 205 206 207 206
323 327 316 294 265 248 247 253 256 252 237 248 262 279 282 269 241 246 286 296 270 234 222 217 213 208 206 203 202 207 206 209 212 213 211 208 204 203 204 207 209 210 209
316 323 325 319 296 274 259 256 252 255 251 251 252 249 254 273 275 254 266 284 274 260 236 220 213 208 204 201 207 205 204 205 207 208 208 206 204 204 205 208 212 213 212
299 302 315 315 306 285 272 262 261 261 252 251 251 247 242 245 255 257 253 270 272 276 268 236 218 206 203 195 202 201 203 201 203 203 203 202 201 202 203 206 211 214 215
268 279 292 295 297 295 289 270 261 261 255 249 254 252 249 251 246 241 247 260 285 286 275 258 237 207 199 186 192 189 195 194 195 197 199 200 199 199 199 201 206 210 213
274 283 287 292 293 293 290 284 265 261 259 252 249 248 246 249 247 244 237 229 237 260 272 270 264 216 181 168 173 170 168 181 183 187 192 196 197 198 197 199 203 206 210
277 286 286 284 285 286 283 279 273 265 258 255 248 245 245 241 244 244 242 237 225 225 254 268 256 235 164 154 145 140 142 151 165 176 186 192 196 198 198 200 203 205 207
271 272 273 276 278 278 278 276 273 274 265 261 258 247 243 235 231 233 230 233 235 219 247 271 276 274 137 146 129 117 114 113 127 155 171 184 190 194 197 199 202 203 205
264 263 265 266 268 272 269 267 269 275 266 263 258 251 248 242 230 226 220 224 228 226 231 257 281 242 167 157 140 128 116 109 103 121 145 160 172 179 184 188 190 192 193
262 264 261 260 262 265 265 263 259 260 258 256 252 246 244 235 232 225 217 220 223 231 226 237 258 253 165 147 133 117 109 103 98 102 108 120 137 149 158 167 173 175 176
262 262 259 255 255 257 259 261 261 260 258 256 250 244 240 229 225 222 218 216 213 215 218 229 238 237 186 154 141 138 130 114 107 100 92 96 105 109 122 135 145 150 152
271 264 261 259 255 256 258 256 253 258 257 258 257 250 245 241 233 220 211 205 200 205 208 213 220 221 195 168 161 148 143 130 96 106 107 92 93 89 88 107 121 131 133
272 270 265 261 260 264 265 262 257 254 251 251 254 253 256 258 249 232 222 209 195 194 202 209 211 217 207 179 159 154 149 151 146 149 120 95 85 83 66 71 111 122 126
274 273 269 263 260 259 259 259 259 254 243 242 243 244 256 255 242 228 228 224 214 207 198 194 208 214 208 186 169 166 167 163 147 151 127 101 76 74 58 76 103 114 120
275 273 273 268 265 267 263 257 256 253 242 238 236 234 235 242 244 225 217 215 211 210 208 203 206 212 208 195 183 174 159 131 102 125 118 112 98 78 62 64 90 107 115
281 276 273 272 269 272 269 264 260 247 240 239 238 236 230 229 234 225 211 207 209 220 219 212 212 216 205 194 173 156 155 152 147 150 120 117 122 103 73 56 77 101 112
279 282 282 276 271 273 275 273 265 240 239 242 240 238 237 231 228 219 205 197 202 210 198 197 210 221 207 192 180 179 172 167 154 150 151 125 133 131 112 75 65 84 99